Vancouver, British Columbia

5:13 PM PDT on July 23, 2017 (GMT -0700)
Vancouver International Airport

Weather History for CYVR - January, 2013

Change the Weather History Date:

Tuesday, January 8, 2013

  Actual Average Record
Temperature  
Mean Temperature 42 °F -  
Max Temperature 48 °F 43 °F 51 °F (2002)
Min Temperature 36 °F 33 °F 28 °F (1998)
Degree Days  
Heating Degree Days 23    
Moisture  
Dew Point 39 °F    
Average Humidity 96    
Maximum Humidity 100    
Minimum Humidity 93    
Precipitation  
Precipitation 0.59 in 0.19 in - ()
Sea Level Pressure  
Sea Level Pressure 29.91 in    
Wind  
Wind Speed 10 mph ()    
Max Wind Speed 20 mph    
Max Gust Speed 23 mph    
Visibility 8.8 miles    
Events Rain    
Averages and records for this station are not official NWS values.
T = Trace of Precipitation, MM = Missing Value Source: Averaged Metar Reports

Daily Weather History Graph

Daily Weather History Graph

Search for Another Location

Airport or City:

Trip Planner

Search our weather history database for the weather conditions in past years. The results will help you decide how hot, cold, wet, or windy it might be!

Date:

Astronomy

Jan. 08, 2013 Rise Set
Actual Time 8:05 AM PST 4:33 PM PST
Civil Twilight 7:29 AM PST 5:10 PM PST
Nautical Twilight 6:48 AM PST 5:50 PM PST
Astronomical Twilight 6:10 AM PST 6:28 PM PST
Moon 4:43 AM PST (1/8) 1:41 PM PST (1/8)
Length of Visible Light 9h 41m
Length of Day
8h 27m
Waning Crescent, 13% of the Moon is Illuminated
Jan 8
Waning Crescent
Jan 11
New
Jan 18
First Quarter
Jan 26
Full
Feb 3
Last Quarter

Hourly Weather History & Observations

Time (PST) Temp. Windchill Dew Point Humidity Pressure Visibility Wind Dir Wind Speed Gust Speed Precip Events Conditions
12:00 AM 37.4 °F 33.8 °F 37.4 °F 100% 30.13 in 15.0 mi East 4.6 mph - N/A   Overcast
1:00 AM 37.4 °F 30.8 °F 35.6 °F 93% 30.14 in 15.0 mi East 9.2 mph - N/A   Mostly Cloudy
2:00 AM 37.4 °F 32.8 °F 37.4 °F 100% 30.14 in 15.0 mi East 5.8 mph - N/A   Overcast
3:00 AM 39.2 °F 34.2 °F 37.4 °F 93% 30.15 in 15.0 mi NE 6.9 mph - N/A   Overcast
4:00 AM 39 °F - 38 °F 94% 30.13 in 15 mi ENE 6.9 mph - -   Overcast
4:00 AM 39.2 °F 34.2 °F 37.4 °F 93% 30.13 in 15.0 mi East 6.9 mph - N/A   Overcast
5:00 AM 39.2 °F 33.6 °F 37.4 °F 93% 30.11 in 15.0 mi East 8.1 mph - N/A   Overcast
6:00 AM 39.2 °F 32.5 °F 37.4 °F 93% 30.09 in 15.0 mi East 10.4 mph - N/A   Overcast
7:00 AM 39.2 °F 33.6 °F 37.4 °F 93% 30.07 in 15.0 mi East 8.1 mph - N/A   Overcast
7:02 AM 39.2 °F 33.0 °F - N/A% - 12.0 mi East 9.2 mph - N/A Rain Light Rain
8:00 AM 41.0 °F 36.4 °F 39.2 °F 93% 30.04 in 8.0 mi ESE 6.9 mph - N/A Rain Light Rain
9:00 AM 39.2 °F 33.6 °F 39.2 °F 100% 30.02 in 8.0 mi East 8.1 mph - N/A Rain Light Rain
10:00 AM 40 °F - 39 °F 93% 30.00 in 6 mi ESE 11.5 mph - - Rain Light Rain
10:00 AM 39.2 °F 32.0 °F 39.2 °F 100% 30.00 in 6.0 mi ESE 11.5 mph - N/A Rain Light Rain
11:00 AM 39.2 °F 31.2 °F 39.2 °F 100% 29.96 in 6.0 mi East 13.8 mph - N/A Rain Light Rain
12:00 PM 39.2 °F 31.6 °F 39.2 °F 100% 29.91 in 6.0 mi East 12.7 mph - N/A Rain Light Rain
12:31 PM 39.2 °F 31.6 °F - N/A% - 7.0 mi ESE 12.7 mph - N/A Rain Light Rain
12:41 PM 39.2 °F 29.6 °F - N/A% - 6.0 mi ESE 19.6 mph - N/A Rain Light Rain
1:00 PM 39.2 °F 30.5 °F 37.4 °F 93% 29.87 in 5.0 mi East 16.1 mph 23.0 mph N/A Rain Light Rain
1:40 PM 37.4 °F 27.5 °F - N/A% - 7.0 mi East 18.4 mph - N/A Rain Light Rain
2:00 PM 37.4 °F 28.9 °F 35.6 °F 93% 29.79 in 7.0 mi ENE 13.8 mph 19.6 mph N/A Rain Light Rain
2:23 PM 37.4 °F 28.5 °F - N/A% - 7.0 mi East 15.0 mph - N/A Rain Light Rain
2:31 PM 37.4 °F 27.8 °F - N/A% - 7.0 mi East 17.3 mph - N/A Rain Light Rain
3:00 PM 37.4 °F 28.9 °F 35.6 °F 93% 29.79 in 7.0 mi ENE 13.8 mph 19.6 mph N/A Rain Light Rain
3:16 PM 37.4 °F 27.8 °F - N/A% - 6.0 mi East 17.3 mph - N/A Rain Light Rain
3:29 PM 37.4 °F 28.9 °F - N/A% - 8.0 mi ENE 13.8 mph 21.9 mph N/A Rain Light Rain
4:00 PM 38 °F - 37 °F 96% 29.75 in 7 mi East 11.5 mph - - Rain Light Rain
4:00 PM 37.4 °F 29.8 °F 37.4 °F 100% 29.75 in 7.0 mi East 11.5 mph - N/A Rain Light Rain
4:10 PM 39.2 °F 32.0 °F - N/A% - 6.0 mi East 11.5 mph - N/A Rain Light Rain
5:00 PM 39.2 °F 31.2 °F 39.2 °F 100% 29.70 in 7.0 mi East 13.8 mph - N/A Rain Light Rain
5:34 PM 39.2 °F 31.2 °F - N/A% - 7.0 mi East 13.8 mph - N/A Rain Rain
6:00 PM 39.2 °F 31.6 °F 39.2 °F 100% 29.67 in 7.0 mi East 12.7 mph - N/A Rain Rain
6:39 PM 39.2 °F 30.2 °F - N/A% - 7.0 mi East 17.3 mph - N/A Rain Rain
7:00 PM 39.2 °F 31.2 °F 39.2 °F 100% 29.64 in 7.0 mi East 13.8 mph 19.6 mph N/A Rain Rain
8:00 PM 39.2 °F 30.2 °F 39.2 °F 100% 29.62 in 7.0 mi East 17.3 mph - N/A Rain Rain
8:48 PM 41.0 °F 33.5 °F - N/A% - 7.0 mi East 13.8 mph - N/A Rain Light Rain
9:00 PM 42.8 °F 36.2 °F 41.0 °F 93% 29.62 in 7.0 mi East 12.7 mph - N/A Rain Light Rain
10:00 PM 48.2 °F - 46.4 °F 93% 29.61 in 6.0 mi SSE 13.8 mph - N/A Rain Light Rain
11:00 PM 48.2 °F - 46.4 °F 93% 29.62 in 8.0 mi SSE 13.8 mph - N/A Rain Light Rain
11:31 PM 46.4 °F 41.5 °F - N/A% - 8.0 mi South 10.4 mph - N/A   Overcast